Location: Zagreb
(45.8000°N, 16.0000°E)
Time: 17:29:19
(UTC+01:00)

Tiros 1 despin weight - Pass Details

Date: 31 January 2020
Orbit: 594 x 642 km, 48.2° (Epoch: 25 February)

Event Time Altitude Azimuth Distance (km) Brightness Sun altitude
Rises 14:00:00 0° 289° (WNW) 2,886 ? 22.0°
Reaches altitude 10° 14:02:19 10° 286° (WNW) 1,986 ? 21.8°
Maximum altitude 14:06:49 59° 207° (SSW) 723 ? 21.4°
Drops below altitude 10° 14:11:22 10° 128° (SE) 2,008 ? 21.0°
Sets 14:13:43 0° 125° (SE) 2,919 ? 20.8°
